Location: Coupvray
(48.8929°N, 2.7967°E)
Time: 00:07:09
(UTC+00:00)

Cosmos 724 - Pass Details

Date: 01 November 2020
Orbit: 851 x 943 km, 65.6° (Epoch: 28 November)

Event Time Altitude Azimuth Distance (km) Brightness Sun altitude
Exits shadow 05:12:01 - 326° (NW) 3,033 6.7 -14.3°
Reaches altitude 10° 05:13:13 10° 330° (NNW) 2,624 6.4 -14.1°
Maximum altitude 05:18:59 41° 39° (NE) 1,337 5.5 -13.1°
Drops below altitude 10° 05:24:47 10° 109° (ESE) 2,654 8.2 -12.2°
Sets 05:27:30 0° 117° (ESE) 3,600 9.1 -11.7°
